RH
100 100 100 81 59 26 22 18 12 22 28 20 21 25 26 23 27 67 45 29 31 30 31 33 40 38 36 47 42 28 22 16 17 15 16 14 14 17 21 22 32 46 35 24 19 18 16 17 15
100 100 100 89 70 35 26 19 15 15 31 20 18 31 26 30 35 33 32 37 42 43 41 37 43 38 48 52 49 31 24 16 18 15 19 18 17 17 20 23 33 44 25 19 18 16 16 18 16
88 100 100 89 80 54 36 22 17 24 42 32 20 31 28 30 37 38 37 38 45 41 46 50 47 38 51 47 56 34 23 18 19 16 19 22 29 25 22 25 32 28 23 18 16 17 16 17 18
80 84 100 100 100 74 64 26 18 28 32 32 21 23 30 35 28 38 41 41 44 42 41 48 49 48 51 51 64 38 25 18 18 18 18 25 31 36 30 28 28 30 25 19 15 18 17 16 17
84 68 76 76 92 87 62 25 22 35 37 34 23 22 27 35 33 41 41 49 56 49 59 60 57 60 56 66 74 34 24 18 20 21 19 22 32 45 42 37 32 32 31 25 16 19 17 17 18
100 100 97 96 92 88 62 24 24 33 33 35 23 24 27 25 39 39 42 49 59 88 100 68 63 67 61 68 69 38 22 18 21 20 19 24 40 51 43 49 43 37 37 40 25 20 20 18 19
84 83 91 81 99 79 58 23 32 32 25 34 22 21 33 31 36 36 44 49 56 62 100 93 75 56 61 63 54 36 24 20 22 23 23 22 37 64 73 56 53 44 37 46 49 31 23 23 22
56 68 84 85 93 68 47 20 32 37 32 38 30 22 30 45 32 30 32 45 48 80 99 100 81 48 53 64 68 38 27 22 20 24 30 25 29 55 100 92 63 55 46 40 50 55 41 28 26
27 75 100 93 85 44 30 20 32 34 35 37 35 26 24 47 36 26 27 37 47 59 96 100 98 59 53 87 94 53 32 26 22 25 28 32 29 31 62 100 86 70 57 54 58 56 49 45 27
52 34 93 100 85 48 21 19 31 35 32 39 36 32 29 29 38 28 26 45 50 54 53 60 92 88 96 100 100 79 42 30 27 29 33 36 33 35 31 69 89 84 71 58 64 61 53 46 37
81 60 33 97 79 55 22 19 27 35 36 37 36 36 35 32 35 30 32 56 66 60 55 52 87 100 100 98 100 88 53 39 35 33 40 43 40 44 40 48 67 97 90 67 63 64 63 64 54
83 61 56 40 78 64 37 19 22 31 36 38 38 36 37 36 30 32 29 46 73 95 82 67 97 100 100 98 100 91 68 57 46 42 40 59 54 49 52 54 64 94 100 90 71 63 68 68 50
91 83 84 65 42 46 63 33 19 25 32 38 40 36 36 39 38 30 27 32 68 100 100 85 69 86 98 100 98 90 78 64 49 50 43 64 66 68 58 60 73 91 96 99 92 72 66 64 55
100 97 88 89 69 50 37 57 32 21 25 34 37 38 36 34 40 36 30 26 50 76 100 100 69 100 98 100 100 100 100 80 56 58 56 84 79 61 75 57 79 99 100 100 100 92 76 72 64
100 100 100 100 99 74 56 38 66 54 21 24 30 37 37 34 33 35 30 27 30 48 58 100 86 88 100 100 100 98 100 74 86 74 58 94 88 58 57 64 70 79 89 100 100 100 100 88 73
100 99 100 100 100 100 93 59 48 85 59 23 24 30 32 31 32 33 30 28 26 34 39 51 99 98 100 100 100 100 91 96 98 83 75 74 86 65 56 58 65 69 75 98 100 100 100 100 91
100 91 99 100 100 100 100 89 65 50 70 60 34 25 26 28 29 30 28 27 25 27 34 40 55 100 100 100 94 99 74 83 93 83 85 86 98 80 64 62 65 72 69 76 96 100 100 100 100
100 100 94 96 100 100 100 96 100 86 49 56 58 49 37 30 29 29 27 26 24 25 34 40 46 95 100 100 88 100 100 90 78 81 98 100 100 93 76 70 59 58 73 76 74 73 89 100 100
100 100 100 92 100 100 100 100 100 100 100 84 43 41 44 51 44 31 26 26 27 24 25 32 30 50 100 100 100 83 89 62 62 99 100 100 100 92 82 68 65 63 70 72 80 79 71 100 100
72 90 87 98 100 100 100 100 90 81 88 100 100 99 67 39 40 42 33 26 30 24 22 28 51 86 100 100 100 94 92 100 100 100 100 99 98 100 100 72 74 82 70 80 82 76 77 71 92
86 73 73 95 100 99 100 100 98 100 87 75 86 100 100 99 92 76 49 35 29 38 40 65 96 100 100 100 100 100 100 100 100 100 99 100 100 97 100 80 70 95 81 86 94 88 91 89 100
100 100 100 95 99 77 88 88 98 100 95 89 91 98 100 100 82 81 85 90 100 100 95 100 94 89 91 93 94 100 100 100 100 100 100 99 90 99 99 90 99 94 98 98 100 97 89 90 100
97 100 100 100 100 100 100 87 54 99 97 88 99 100 100 100 94 77 63 67 60 90 100 94 88 94 100 87 74 74 82 100 100 100 99 80 77 86 100 100 93 100 100 100 100 100 100 100 100
80 100 100 100 100 100 94 100 64 63 56 85 96 100 100 100 100 100 99 82 77 82 100 100 90 92 98 92 74 70 71 74 84 79 72 87 100 100 100 100 100 100 100 100 100 100 100 100 100
77 88 83 93 94 87 100 100 97 100 97 87 100 100 100 84 96 100 100 97 81 85 100 100 100 100 100 100 90 84 83 87 84 81 74 76 82 100 100 100 100 100 100 100 100 100 100 100 100
100 94 95 96 83 84 92 100 100 100 100 100 100 100 100 98 84 80 77 88 93 98 97 100 100 100 100 100 100 100 100 100 100 100 100 100 100 100 100 100 100 100 100 100 100 100 100 100 100
92 91 79 72 60 70 60 63 69 84 100 100 100 100 100 100 100 88 83 58 62 75 79 86 100 100 100 100 100 99 99 100 100 100 100 100 100 100 100 100 100 100 100 100 100 100 100 100 100
100 88 92 90 66 56 40 38 51 50 65 78 94 100 100 100 100 100 100 100 99 68 48 50 65 83 98 100 100 100 100 100 100 100 98 100 100 100 100 100 100 100 100 100 100 100 100 100 100
92 100 98 88 86 66 50 34 32 39 58 57 52 56 77 98 100 100 100 100 100 100 100 94 88 73 67 80 88 98 100 98 100 100 100 100 97 99 100 100 100 100 100 100 100 100 100 100 100
93 99 97 94 80 73 59 39 54 48 44 64 59 53 47 50 70 84 99 100 100 100 100 100 100 100 100 100 100 100 100 100 100 100 100 100 98 99 96 92 100 100 100 100 100 100 100 100 100
Wind_Speed
39 40 37 33 33 37 39 38 33 31 29 26 19 16 18 15 18 26 27 21 23 22 20 21 25 28 29 29 34 38 43 43 42 43 46 45 41 34 31 29 25 26 38 34 29 27 24 20 19
29 42 35 31 33 40 44 37 32 31 35 29 20 16 19 15 17 19 20 19 22 21 22 23 27 26 27 29 31 36 41 41 42 42 42 45 45 40 34 33 28 33 36 34 32 30 24 21 19
48 39 39 31 34 45 46 41 32 31 38 32 24 19 24 18 19 20 21 19 21 22 23 24 26 27 25 28 29 35 38 38 40 42 41 42 43 45 40 36 31 31 35 34 34 29 27 21 20
45 45 38 39 38 46 48 45 34 40 42 36 28 19 23 26 20 20 17 20 22 25 25 26 26 25 23 27 28 34 37 35 37 40 41 41 42 46 44 38 35 31 32 32 31 31 29 24 22
41 43 42 38 46 50 47 48 40 47 42 40 33 22 21 26 23 22 17 18 23 24 24 23 25 25 24 24 25 31 35 32 36 39 41 40 41 40 46 44 42 32 30 30 28 30 26 28 22
42 39 41 39 46 52 50 49 47 50 43 41 38 23 24 23 24 23 19 19 22 23 21 25 25 23 26 24 23 28 30 33 36 37 39 39 38 37 44 45 43 38 33 28 26 26 26 25 22
52 45 42 42 44 50 51 48 46 53 45 41 42 24 23 26 26 20 20 19 23 26 25 25 25 23 27 26 23 24 28 31 37 37 39 39 39 36 38 45 42 39 35 29 27 24 26 25 22
51 46 43 43 44 51 50 51 49 55 50 39 42 30 23 28 29 22 22 20 23 26 23 26 23 23 27 26 25 21 25 30 35 36 38 40 39 36 37 40 44 40 35 32 28 26 24 27 23
44 46 44 45 47 52 55 50 51 58 49 42 42 37 27 25 32 27 24 21 22 27 26 23 23 25 30 28 26 21 23 29 33 35 37 36 38 40 40 41 41 42 34 32 29 26 24 26 26
48 42 49 50 52 52 53 50 52 56 49 47 43 39 35 29 31 30 22 21 21 28 31 28 27 28 30 26 27 24 23 26 31 34 35 33 34 37 38 40 42 41 39 30 27 26 28 29 29
53 48 50 55 55 56 53 54 50 53 57 52 47 44 41 34 34 32 25 24 25 27 30 28 27 28 29 27 25 25 27 29 31 33 31 31 30 33 36 37 41 44 41 32 29 28 27 29 31
56 54 55 54 59 57 55 57 53 56 59 58 50 48 44 47 37 36 29 25 25 32 34 30 30 29 29 28 27 28 25 31 34 33 31 27 28 30 33 37 39 44 44 41 32 31 29 28 32
63 62 59 57 56 54 59 58 58 58 60 61 56 52 46 49 48 41 33 29 21 29 37 38 31 27 31 31 32 29 29 29 35 34 34 27 29 29 31 35 38 44 46 45 39 33 31 31 29
73 69 65 60 57 55 54 59 59 61 62 63 60 59 53 48 53 48 42 35 27 26 37 43 36 27 32 36 32 32 29 31 39 33 33 27 26 27 31 35 35 41 48 51 48 39 35 32 31
74 71 69 64 62 60 62 55 60 64 68 66 65 60 61 53 55 51 49 44 37 30 37 43 43 35 36 38 33 34 31 38 38 31 37 29 28 32 31 35 35 36 41 51 51 45 43 40 34
77 73 68 67 69 69 72 52 59 67 70 67 66 66 63 59 56 56 52 50 48 37 37 44 47 45 39 41 35 35 34 36 33 38 39 39 41 36 36 34 35 35 39 43 49 52 50 43 40
82 72 65 70 73 78 80 62 66 69 71 70 69 69 67 64 60 59 57 57 55 45 39 46 49 47 40 42 39 35 36 37 41 44 42 43 41 41 44 42 42 39 40 42 44 49 54 49 47
83 80 80 76 74 83 83 69 72 74 72 71 71 69 68 67 65 64 61 60 59 59 43 49 52 50 42 44 42 37 38 41 44 48 47 42 40 44 50 50 49 50 44 41 43 41 47 54 54
96 95 88 82 81 81 82 79 78 78 76 71 69 71 69 71 71 70 67 63 67 67 55 53 55 56 49 44 43 43 44 44 46 47 45 43 42 48 53 56 57 58 49 51 45 43 46 52 55
104 103 96 91 90 92 90 86 86 83 76 69 69 73 71 69 69 71 70 67 70 73 62 58 58 60 58 47 46 46 45 48 48 45 44 44 49 51 54 58 59 58 54 53 50 50 51 47 48
101 102 100 99 102 103 101 97 90 84 81 77 74 72 73 74 73 74 70 66 68 73 70 64 62 62 61 53 49 50 46 48 49 49 48 49 52 55 57 59 63 58 59 57 58 58 54 49 54
99 92 98 103 111 108 108 110 100 88 83 79 78 76 77 80 78 76 71 68 66 69 70 64 63 62 62 60 55 52 50 51 53 53 53 54 54 55 59 62 60 62 63 62 66 61 60 51 53
106 106 101 101 111 112 116 119 93 92 90 85 85 82 79 82 84 84 79 75 72 71 72 70 70 68 70 67 62 59 59 58 60 58 56 57 58 56 62 59 62 64 62 67 66 63 59 51 52
117 114 112 110 108 114 106 114 96 99 94 93 93 93 87 86 86 85 84 82 76 76 73 78 77 76 77 74 70 67 64 61 59 59 59 59 62 64 63 63 64 65 66 69 70 61 58 59 60
114 115 119 122 121 113 97 110 100 93 97 100 98 98 97 94 95 93 92 87 82 77 77 80 80 82 82 80 76 74 70 67 65 65 66 67 67 67 67 65 65 66 73 72 71 68 66 62 63
118 118 122 121 120 118 113 121 104 93 98 99 100 99 100 102 105 106 102 96 90 85 86 86 86 84 82 81 77 73 70 70 66 66 67 67 69 69 69 70 69 72 73 73 75 74 66 66 68
118 125 119 124 124 128 124 122 118 101 97 95 97 102 100 100 102 106 108 104 98 94 92 92 92 92 90 86 82 80 79 77 72 69 69 68 71 73 76 75 72 72 75 77 82 75 68 69 72
122 117 124 126 129 130 125 119 118 108 104 103 102 103 102 104 104 101 99 99 98 99 102 103 98 97 95 92 90 88 83 81 79 76 73 73 73 75 76 73 74 78 81 83 78 74 70 74 77
126 126 127 126 129 129 128 120 110 105 105 106 107 109 112 112 108 106 104 97 92 96 97 103 105 103 101 99 97 95 92 90 89 87 84 83 79 79 80 81 83 84 85 83 78 75 74 77 79
130 129 133 138 136 133 133 128 112 110 103 104 108 109 110 116 116 113 112 107 102 97 97 96 96 98 98 99 99 98 96 94 93 90 89 85 84 83 85 86 87 87 86 82 78 75 76 78 78
Wind_Direction
245 231 241 247 257 253 251 245 245 244 250 251 232 236 244 251 222 245 264 281 289 298 310 317 327 332 333 336 341 350 351 354 359 4 12 16 16 8 3 356 352 350 346 346 350 346 340 332 324
237 230 235 243 253 253 251 251 250 249 249 251 245 254 257 254 254 258 275 285 294 301 307 319 322 326 330 332 338 347 350 354 0 3 10 14 21 17 7 1 348 342 346 352 350 353 350 343 332
244 241 231 239 251 251 254 251 243 247 252 249 247 243 264 255 256 265 274 280 293 300 310 318 318 319 327 329 336 346 349 353 357 4 11 14 15 19 18 8 356 351 351 353 353 357 356 346 336
238 245 228 242 250 254 257 251 248 242 250 248 247 242 256 258 259 264 277 291 296 301 305 310 313 317 323 328 332 342 346 352 359 1 9 10 15 15 19 18 8 357 351 355 356 357 353 355 349
246 244 243 252 243 249 250 245 239 244 247 250 251 251 248 257 267 268 280 295 296 307 305 304 311 313 317 329 328 340 346 350 353 358 2 7 9 8 14 18 16 6 353 353 357 359 353 354 352
242 243 242 245 241 243 246 241 239 244 245 250 252 250 255 258 260 263 275 280 290 300 303 307 309 308 310 320 324 335 346 350 351 353 359 1 2 0 4 8 14 14 4 355 352 353 357 360 0
245 245 244 248 247 241 244 235 237 249 247 253 259 248 260 262 260 265 268 277 276 288 291 297 301 307 305 311 318 329 341 349 350 352 353 359 0 351 349 353 7 10 11 4 354 352 354 351 355
245 244 245 249 247 245 238 230 232 242 248 247 257 251 249 268 267 261 268 269 273 284 287 291 297 303 298 304 307 323 338 346 348 347 349 354 360 357 344 339 350 1 6 9 2 352 348 353 349
248 242 245 247 244 244 236 228 228 240 244 245 250 256 247 258 271 266 269 266 271 279 282 289 299 299 297 296 300 315 331 342 343 343 348 349 350 360 353 341 344 346 357 2 359 353 349 345 347
247 247 241 243 244 244 236 231 228 246 244 248 249 253 252 246 265 271 274 270 277 275 277 284 292 299 302 302 290 304 321 334 337 338 341 343 345 350 357 348 340 341 347 356 353 349 348 346 345
248 244 244 242 243 246 238 232 227 242 249 244 248 252 255 251 253 264 272 273 280 279 280 280 287 296 296 304 291 305 318 323 328 334 333 333 339 343 349 348 344 334 335 348 345 345 345 341 338
247 244 244 246 244 245 243 237 229 235 247 252 246 250 255 258 250 256 262 266 275 281 282 280 281 289 299 297 296 304 307 315 320 329 329 323 330 340 343 342 343 334 329 331 340 343 342 336 341
245 246 244 245 249 249 245 243 236 235 242 250 253 252 252 263 264 260 262 259 261 272 278 283 282 284 294 292 299 305 305 310 315 319 325 314 323 328 336 340 338 332 329 325 329 332 337 336 334
245 246 247 246 249 253 252 248 246 241 240 247 250 255 255 254 264 268 268 262 258 267 272 278 281 281 288 290 295 299 294 302 311 311 316 308 311 321 329 332 333 329 327 321 320 324 327 328 327
248 246 246 247 244 247 249 248 248 248 243 242 248 250 255 255 260 262 267 268 263 260 273 277 279 280 283 283 286 290 290 302 306 304 318 302 300 315 324 325 332 331 329 320 317 317 317 322 318
237 239 245 248 247 246 249 248 250 248 250 247 246 249 252 256 257 263 266 266 267 260 263 276 281 283 285 277 277 286 293 299 301 306 308 306 304 308 317 321 324 331 334 321 318 314 312 315 316
240 240 237 247 249 248 250 244 245 245 246 248 248 249 252 254 258 260 263 266 269 266 262 271 277 281 281 275 282 284 290 292 297 300 301 300 297 302 310 312 316 323 332 335 319 314 313 307 312
244 242 237 234 240 246 249 247 246 247 247 247 251 253 254 257 258 259 262 265 266 268 264 271 276 280 278 275 281 281 282 288 293 297 297 294 292 300 306 309 310 314 320 329 330 326 319 308 308
239 239 238 238 238 242 244 241 245 251 250 249 251 255 256 256 257 258 260 263 267 268 267 267 275 279 280 274 277 279 283 286 289 291 294 290 289 299 302 305 306 306 310 317 327 324 324 310 307
239 239 241 238 242 246 246 244 243 242 245 251 256 257 256 257 259 258 258 260 264 268 267 270 275 278 279 274 272 276 281 285 286 286 291 290 292 296 296 302 302 303 304 313 323 325 324 320 308
239 240 240 241 242 243 246 247 244 245 246 246 246 250 258 259 258 258 259 259 263 269 268 269 271 274 276 274 272 272 274 280 285 285 286 289 291 293 291 297 297 296 298 305 316 321 322 312 301
232 236 237 240 242 241 246 247 246 249 249 249 250 252 254 257 257 258 258 259 260 266 269 269 268 270 272 273 273 275 277 278 281 286 286 287 288 286 288 293 292 294 298 303 311 316 321 314 298
237 241 233 234 239 240 241 247 242 248 251 252 251 250 252 256 258 258 258 259 259 262 269 269 271 273 273 273 275 277 280 280 283 282 283 286 286 283 287 288 290 290 296 302 309 313 315 307 302
241 244 241 238 237 238 240 247 242 245 248 251 251 251 251 254 257 259 260 260 262 265 271 273 273 274 276 278 278 280 280 280 279 279 282 284 285 287 285 287 287 289 297 300 306 307 305 307 303
244 247 248 248 246 242 239 244 242 241 246 248 250 252 255 254 255 258 261 262 262 264 266 268 270 272 274 276 279 281 282 281 280 281 282 281 283 285 283 285 287 290 297 300 303 307 303 297 299
242 244 246 247 248 250 246 247 242 234 237 243 248 253 256 257 259 259 259 261 262 262 263 267 270 271 271 273 276 277 278 279 279 279 280 282 281 282 283 286 288 293 297 298 301 305 301 297 297
240 244 246 247 246 249 246 248 249 244 238 240 244 249 251 255 259 261 263 262 259 261 264 266 267 269 272 273 274 275 275 276 278 279 279 280 280 281 283 286 289 292 294 296 301 301 298 294 295
242 243 244 245 246 247 247 245 250 249 251 251 249 249 249 250 252 254 259 264 266 265 264 266 266 268 269 271 273 275 275 276 278 279 281 282 282 283 286 286 287 291 293 298 298 298 296 295 298
244 245 248 248 250 249 249 248 251 249 250 252 254 255 253 252 251 252 254 256 259 263 265 268 269 269 270 270 272 273 275 276 278 280 282 283 284 284 284 285 287 290 293 295 295 296 295 296 300
242 245 246 249 250 251 251 250 246 249 248 251 253 254 255 256 256 256 256 254 255 259 261 262 265 268 270 271 273 274 276 276 278 280 282 283 284 283 284 286 287 289 291 292 293 293 292 294 294